Home   Weather   Groningen   Past weeks

Flag for Netherlands Past Weather in Groningen, Netherlands — Yesterday and Last 2 Weeks

59 °F


Feels Like: 57 °F
Forecast: 49 / 58 °F
Wind: 13 mph from Southwest

Location: Groningen Eelde Airport

Current Time: Oct 27, 2016 at 1:01:11 PM

Latest Report: Oct 27, 2016 at 12:25 PM

Visibility: 5 mi

Pressure: 30.39 "Hg

Humidity: 82%

Dew Point: 54 °F

Location of GroningenLocation

Past Weather in Groningen — Graph


Groningen Temperature Yesterday

Maximum temperature yesterday: 52 °F (at 2:25 PM)
Minimum temperature yesterday: 32 °F (at 12:55 AM)
Average temperature yesterday: 44 °F

High & Low Weather Summary for the Past Weeks

High64 °F (Oct 17, 2:25 PM)100% (Oct 15, 3:55 PM)30.39 "Hg (Oct 15, 3:55 PM)
Low32 °F (Oct 26, 12:55 AM)59% (Oct 16, 2:25 PM)29.68 "Hg (Oct 15, 4:55 AM)
Average47 °F89%30.03 "Hg
* Reported Oct 12 11:25 AM — Oct 27 11:55 AM, Groningen, Weather by CustomWeather, © 2016

Note: Actual official high and low records may vary slightly from our data, if they occured in-between our weather recording intervals... More about our weather records


Groningen Weather History for the Previous 24 Hours

Scroll right to see more
Time TempWeatherWind HumidityBarometerVisibility
11:55 AM
Thu, Oct 27
55 °FBroken clouds.12 mph94%30.39 "Hg4 mi
11:25 AM55 °FFog.10 mph94%30.39 "Hg2 mi
10:55 AM54 °FFog.12 mph100%30.39 "Hg2 mi
10:25 AM54 °FFog.10 mph94%30.39 "Hg2 mi
9:55 AM54 °FFog.12 mph94%30.39 "Hg1 mi
9:25 AM52 °FFog.10 mph100%30.39 "Hg1 mi
8:55 AM50 °FFog.7 mph100%30.39 "Hg1 mi
8:25 AM50 °FFog.8 mph94%30.36 "Hg1 mi
7:55 AM50 °FFog.8 mph100%30.36 "Hg1 mi
7:25 AM52 °FFog.8 mph94%30.36 "Hg1 mi
6:55 AM50 °FFog.8 mph100%30.36 "Hg1 mi
6:25 AM52 °FFog.8 mph94%30.36 "Hg2 mi
5:55 AM50 °FFog.8 mph100%30.36 "Hg1 mi
5:25 AM50 °FFog.9 mph100%30.33 "Hg1 mi
4:55 AM50 °FFog.8 mph100%30.33 "Hg1 mi
4:25 AM48 °FFog.8 mph100%30.33 "Hg1 mi
3:55 AM48 °FFog.8 mph100%30.33 "Hg1 mi
3:25 AM50 °FFog.8 mph94%30.33 "Hg1 mi
2:55 AM48 °FFog.8 mph94%30.36 "Hg1 mi
2:25 AM48 °FFog.8 mph100%30.33 "Hg1 mi
1:55 AM50 °FFog.8 mph100%30.33 "Hg1 mi
1:25 AM52 °FFog.8 mph94%30.33 "Hg2 mi
12:25 AM52 °FFog.8 mph94%30.33 "Hg2 mi
11:55 PM
Wed, Oct 26
50 °FFog.8 mph94%30.33 "Hg2 mi
11:25 PM50 °FFog.8 mph94%30.33 "Hg2 mi
10:55 PM50 °FFog.8 mph94%30.33 "Hg2 mi
10:25 PM52 °FFog.9 mph88%30.33 "Hg2 mi
9:55 PM52 °FFog.9 mph88%30.33 "Hg2 mi
9:25 PM52 °FFog.9 mph88%30.33 "Hg2 mi
8:55 PM50 °FFog.8 mph88%30.33 "Hg3 mi
8:25 PM50 °FOvercast.8 mph88%30.33 "Hg4 mi
7:55 PM50 °FOvercast.8 mph88%30.33 "Hg4 mi
7:25 PM50 °FOvercast.7 mph88%30.33 "Hg4 mi
6:55 PM50 °FDrizzle. Overcast.7 mph88%30.33 "Hg4 mi
6:25 PM52 °FOvercast.7 mph77%30.33 "Hg5 mi
5:55 PM52 °FCloudy.7 mph77%30.33 "Hg6 mi
5:25 PM52 °FPartly sunny.8 mph77%30.33 "Hg6 mi
4:55 PM52 °FScattered clouds.8 mph77%30.33 "Hg6 mi
4:25 PM52 °FPassing clouds.9 mph77%30.33 "Hg5 mi
3:55 PM52 °FPartly sunny.9 mph77%30.33 "Hg5 mi
3:25 PM52 °FPartly sunny.8 mph77%30.33 "Hg4 mi
2:55 PM52 °FBroken clouds.10 mph77%30.36 "Hg4 mi
2:25 PM52 °FPassing clouds.9 mph77%30.36 "Hg5 mi
1:55 PM50 °FPassing clouds.8 mph82%30.36 "Hg5 mi
1:25 PM50 °FClear.7 mph82%30.36 "Hg5 mi
Weather by CustomWeather, © 2016

See weather overviewHow to use our weather pages